Location: Moscow
(38.3171°N, 79.0889°W)
Time: 01:11:19
(UTC+00:00)

Cosmos 1833 Rocket - Pass Details

Date: 07 November 2025
Orbit: 829 x 840 km, 71.0° (Epoch: 08 December)

Event Time Altitude Azimuth Distance (km) Brightness Sun altitude
Rises 22:53:48 0° 352° (N) 3,400 5.8 -9.0°
Reaches altitude 10° 22:57:15 10° 14° (NNE) 2,463 4.9 -9.6°
Maximum altitude 23:00:43 16° 52° (NE) 2,045 4.2 -10.3°
Enters shadow 23:02:46 14° 76° (ENE) 2,198 4.2 -10.7°
